AA3JL Weather Reports


Display with metric or nautical units.
time (UTC)temp
F
wind
direction
speed
MPH
gust
MPH
rain 1hr
in
rain 24hr
in
rain mn
in
humidity
%
barometer
mb
20260509161552 54 234 8.0 15.0 0.02 0.34 0.34 90 1009.0
20260509160040 53 201 7.0 16.0 0.03 0.34 0.34 91 1008.9
20260509154545 53 186 7.0 16.0 0.03 0.33 0.33 92 1009.0
20260509153056 53 221 7.0 18.0 0.05 0.33 0.33 92 1009.2
20260509151540 53 209 4.0 11.0 0.05 0.32 0.32 93 1009.3
20260509150042 53 235 5.0 10.0 0.06 0.31 0.31 93 1009.4
20260509144545 53 210 5.0 16.0 0.07 0.30 0.30 93 1009.3
20260509143037 53 216 6.0 15.0 0.07 0.28 0.28 93 1009.5
20260509141542 52 220 7.0 14.0 0.07 0.27 0.27 92 1009.7
20260509140052 52 220 6.0 12.0 0.05 0.24 0.24 92 1009.6
20260509134539 52 211 6.0 14.0 0.06 0.23 0.23 92 1009.8
20260509133039 52 251 7.0 16.0 0.05 0.21 0.21 92 1009.7
20260509131538 52 222 9.0 16.0 0.05 0.20 0.20 91 1010.0
20260509130038 52 211 6.0 14.0 0.05 0.19 0.19 91 1009.9
20260509124533 52 223 7.0 15.0 0.04 0.17 0.17 91 1009.8
20260509123033 52 207 8.0 14.0 0.03 0.16 0.16 92 1010.1
20260509121539 52 222 5.0 11.0 0.04 0.15 0.15 92 1009.9
20260509120039 52 215 3.0 9.0 0.04 0.14 0.14 91 1009.9
20260509114538 52 215 4.0 9.0 0.06 0.13 0.13 91 1010.1
20260509113035 51 240 5.0 10.0 0.07 0.13 0.13 91 1009.9
20260509111539 51 206 5.0 14.0 0.06 0.11 0.11 90 1009.8
20260509110039 51 186 6.0 17.0 0.05 0.10 0.10 90 1009.8
20260509104539 51 220 7.0 13.0 0.04 0.07 0.07 90 1009.8
20260509103046 51 206 5.0 11.0 0.03 0.06 0.06 89 1009.7
20260509101540 52 236 6.0 14.0 0.04 0.05 0.05 89 1009.7
20260509100038 52 207 7.0 13.0 0.04 0.05 0.05 88 1009.9
20260509094536 52 187 7.0 16.0 0.02 0.03 0.03 87 1010.1
20260509093043 52 222 6.0 12.0 0.03 0.03 0.03 86 1010.2
20260509091548 51 252 7.0 11.0 0.01 0.01 0.01 87 1010.3
20260509090041 51 204 2.0 5.0 0.01 0.01 0.01 89 1010.1
20260509084536 51 219 1.0 4.0 0.01 0.01 0.01 89 1009.9
20260509083042 51 209 0.0 2.0 0.00 0.00 0.00 89 1009.7
20260509081540 51 0 0.0 2.0 0.00 0.00 0.00 87 1009.3
20260509080046 51 0 0.0 0.0 0.00 0.00 0.00 86 1009.2
20260509074550 51 0 0.0 3.0 0.00 0.00 0.00 85 1009.0
20260509073058 51 34 1.0 6.0 0.00 0.00 0.00 85 1009.1
20260509071548 51 352 0.0 2.0 0.00 0.00 0.00 85 1009.1
20260509070044 51 352 1.0 4.0 0.00 0.00 0.00 85 1008.9
20260509064540 52 0 0.0 3.0 0.00 0.00 0.00 83 1009.0
20260509063052 52 134 1.0 7.0 0.00 0.00 0.00 81 1009.0
20260509061537 52 101 2.0 7.0 0.00 0.00 0.00 81 1009.6
20260509060101 51 205 1.0 5.0 0.00 0.00 0.00 83 1010.3
20260509054543 51 0 0.0 4.0 0.00 0.00 0.00 84 1010.3
20260509053052 51 0 1.0 4.0 0.00 0.00 0.00 86 1010.5
20260509051538 51 135 1.0 6.0 0.00 0.00 0.00 87 1010.7
20260509050035 50 146 2.0 6.0 0.00 0.00 0.00 89 1010.9
20260509044542 51 0 0.0 0.0 0.00 0.00 0.00 90 1011.0
20260509043051 51 0 0.0 2.0 0.00 0.00 0.00 88 1011.2
20260509041541 51 86 1.0 7.0 0.00 0.00 0.00 88 1011.2
20260509040058 51 75 3.0 7.0 0.00 0.00 0.00 88 1011.4
20260509034538 51 90 3.0 9.0 0.00 0.00 0.00 87 1011.9
20260509033047 52 69 2.0 6.0 0.00 0.00 0.00 86 1012.0
20260509031544 52 79 2.0 5.0 0.00 0.00 0.00 84 1012.2
20260509030039 52 75 3.0 10.0 0.00 0.00 0.00 83 1012.0
20260509024547 52 25 4.0 8.0 0.00 0.00 0.00 81 1012.1
20260509023038 53 59 1.0 5.0 0.00 0.00 0.00 78 1012.1
20260509021538 53 17 2.0 5.0 0.00 0.00 0.00 77 1011.8
20260509020035 53 352 1.0 4.0 0.00 0.00 0.00 79 1011.5
20260509014542 53 0 0.0 3.0 0.00 0.00 0.00 78 1011.2
20260509013040 53 0 0.0 2.0 0.00 0.00 0.00 77 1010.8
20260509011544 53 0 0.0 2.0 0.00 0.00 0.00 74 1010.8
20260509010040 54 84 0.0 3.0 0.00 0.00 0.00 74 1010.8
20260509004537 54 66 1.0 4.0 0.00 0.00 0.00 73 1010.8
20260509003037 54 74 1.0 3.0 0.00 0.00 0.00 73 1010.9
20260509001539 55 59 2.0 4.0 0.00 0.00 0.00 72 1010.9
20260509000040 55 51 1.0 3.0 0.00 0.00 0.00 71 1011.0
20260508234538 56 59 1.0 3.0 0.00 0.00 0.00 70 1010.8
20260508233039 56 32 0.0 2.0 0.00 0.00 0.00 70 1010.9
20260508231537 56 0 1.0 4.0 0.00 0.00 0.00 68 1011.0
20260508230036 57 51 0.0 2.0 0.00 0.00 0.00 68 1010.9
20260508224547 58 360 1.0 3.0 0.00 0.00 0.00 64 1010.9
20260508223041 58 0 0.0 2.0 0.00 0.00 0.00 61 1011.1
20260508221539 58 0 0.0 3.0 0.00 0.00 0.00 61 1010.9
20260508220047 58 0 0.0 4.0 0.00 0.00 0.00 63 1011.0
20260508214542 58 164 1.0 5.0 0.00 0.00 0.00 63 1011.0
20260508213041 57 155 2.0 4.0 0.00 0.00 0.00 62 1011.2
20260508211538 57 194 0.0 4.0 0.00 0.00 0.00 65 1011.6
20260508210039 57 202 1.0 6.0 0.00 0.00 0.00 65 1011.7
20260508204539 57 209 0.0 4.0 0.00 0.00 0.00 66 1011.8
20260508203040 57 254 2.0 13.0 0.00 0.00 0.00 65 1012.1
20260508201536 58 266 3.0 10.0 0.00 0.00 0.00 62 1012.3
20260508200043 58 275 6.0 15.0 0.00 0.00 0.00 60 1012.4
20260508194556 58 220 8.0 18.0 0.00 0.00 0.00 59 1012.2
20260508193039 58 225 7.0 14.0 0.00 0.00 0.00 61 1012.3
20260508191545 59 248 6.0 19.0 0.00 0.00 0.00 58 1012.5
20260508190044 60 271 8.0 16.0 0.00 0.00 0.00 56 1012.5
20260508184543 59 252 9.0 19.0 0.00 0.00 0.00 55 1012.5
20260508183043 59 233 8.0 17.0 0.00 0.00 0.00 55 1012.6
20260508181546 60 219 13.0 24.0 0.00 0.00 0.00 52 1012.2
20260508180038 62 230 8.0 19.0 0.00 0.00 0.00 50 1012.2
20260508174541 63 286 12.0 21.0 0.00 0.00 0.00 50 1012.3
20260508173037 60 242 9.0 19.0 0.00 0.00 0.00 54 1012.5
20260508171541 60 254 8.0 23.0 0.00 0.00 0.00 51 1012.5
20260508170036 62 227 11.0 22.0 0.00 0.00 0.00 47 1012.6
20260508164539 63 240 7.0 16.0 0.00 0.00 0.00 48 1012.6
20260508163053 63 231 7.0 18.0 0.00 0.00 0.00 49 1012.7